Time,TemperatureF,DewpointF,PressureIn,WindDirection,WindDirectionDegrees,WindSpeedMPH,WindSpeedGustMPH,Humidity,HourlyPrecipIn,Conditions,Clouds,dailyrainin,SoftwareType,DateUTC
2013-03-31 00:00:00,53.8,49.4,30.13,SSE,150,4.0,6.0,85,0.00,,---,0.00,VWS V14.01,2013-03-31 04:00:00,
2013-03-31 00:05:00,53.9,49.5,30.13,SE,126,5.0,6.0,85,0.00,,---,0.00,VWS V14.01,2013-03-31 04:05:00,
2013-03-31 00:10:00,53.9,49.5,30.13,SE,129,3.0,10.0,85,0.00,,---,0.00,VWS V14.01,2013-03-31 04:10:00,
2013-03-31 00:15:00,54.1,49.7,30.13,SE,136,7.0,10.0,85,0.00,,---,0.00,VWS V14.01,2013-03-31 04:15:00,
2013-03-31 00:21:00,54.1,49.7,30.12,SE,130,7.0,10.0,85,0.00,,---,0.00,VWS V14.01,2013-03-31 04:21:00,
2013-03-31 00:26:00,54.2,49.8,30.12,SE,146,6.0,10.0,85,0.00,,---,0.00,VWS V14.01,2013-03-31 04:26:00,
2013-03-31 00:31:00,54.2,49.8,30.12,SE,129,2.0,6.0,85,0.00,,---,0.00,VWS V14.01,2013-03-31 04:31:00,
2013-03-31 00:36:00,54.3,50.2,30.13,SSE,149,3.0,6.0,86,0.00,,---,0.00,VWS V14.01,2013-03-31 04:36:00,
2013-03-31 00:41:00,54.2,49.8,30.12,SE,132,7.0,7.0,85,0.00,,---,0.00,VWS V14.01,2013-03-31 04:41:00,
2013-03-31 00:46:00,54.3,49.9,30.12,SE,132,6.0,10.0,85,0.00,,---,0.00,VWS V14.01,2013-03-31 04:46:00,
2013-03-31 00:51:00,54.4,50.0,30.12,SE,130,5.0,10.0,85,0.00,,---,0.00,VWS V14.01,2013-03-31 04:51:00,
2013-03-31 00:56:00,54.5,50.1,30.12,SE,132,7.0,10.0,85,0.00,,---,0.00,VWS V14.01,2013-03-31 04:56:00,
2013-03-31 01:01:00,54.5,50.1,30.12,SSE,153,2.0,8.0,85,0.00,,---,0.00,VWS V14.01,2013-03-31 05:01:00,
2013-03-31 01:06:00,54.5,50.1,30.11,SE,140,5.0,10.0,85,0.00,,---,0.00,VWS V14.01,2013-03-31 05:06:00,
2013-03-31 01:12:00,54.5,50.1,30.11,SE,141,5.0,10.0,85,0.00,,---,0.00,VWS V14.01,2013-03-31 05:12:00,
2013-03-31 01:17:00,54.5,50.1,30.11,SE,134,5.0,10.0,85,0.00,,---,0.00,VWS V14.01,2013-03-31 05:17:00,
2013-03-31 01:22:00,54.5,50.1,30.10,SE,130,5.0,10.0,85,0.00,,---,0.00,VWS V14.01,2013-03-31 05:22:00,
2013-03-31 01:27:00,54.5,50.1,30.10,SE,146,6.0,10.0,85,0.00,,---,0.00,VWS V14.01,2013-03-31 05:27:00,
2013-03-31 01:32:00,54.5,50.4,30.11,SE,134,7.0,10.0,86,0.00,,---,0.00,VWS V14.01,2013-03-31 05:32:00,
2013-03-31 01:37:00,54.5,50.4,30.10,SE,136,3.0,10.0,86,0.00,,---,0.00,VWS V14.01,2013-03-31 05:37:00,
2013-03-31 01:42:00,54.4,50.3,30.10,SE,132,6.0,11.0,86,0.00,,---,0.00,VWS V14.01,2013-03-31 05:42:00,
2013-03-31 01:47:00,54.5,50.4,30.10,SE,138,2.0,11.0,86,0.00,,---,0.00,VWS V14.01,2013-03-31 05:47:00,
2013-03-31 01:52:00,54.5,50.4,30.10,SSE,161,3.0,11.0,86,0.00,,---,0.00,VWS V14.01,2013-03-31 05:52:00,
2013-03-31 01:57:00,54.5,50.4,30.10,SSE,165,7.0,11.0,86,0.00,,---,0.00,VWS V14.01,2013-03-31 05:57:00,
2013-03-31 02:02:00,54.6,50.8,30.10,SSE,158,7.0,9.0,87,0.00,,---,0.00,VWS V14.01,2013-03-31 06:02:00,
2013-03-31 02:08:00,54.7,50.9,30.10,South,170,5.0,9.0,87,0.00,,---,0.00,VWS V14.01,2013-03-31 06:08:00,
2013-03-31 02:13:00,54.7,50.9,30.09,South,181,5.0,9.0,87,0.00,,---,0.00,VWS V14.01,2013-03-31 06:13:00,
2013-03-31 02:18:00,54.6,50.8,30.09,SSE,155,3.0,9.0,87,0.00,,---,0.00,VWS V14.01,2013-03-31 06:18:00,
2013-03-31 02:23:00,54.6,50.8,30.09,SSE,148,4.0,9.0,87,0.00,,---,0.00,VWS V14.01,2013-03-31 06:23:00,
2013-03-31 02:28:00,54.6,51.1,30.09,SSE,156,7.0,7.0,88,0.00,,---,0.00,VWS V14.01,2013-03-31 06:28:00,
2013-03-31 02:33:00,54.6,51.1,30.09,SE,134,3.0,8.0,88,0.00,,---,0.00,VWS V14.01,2013-03-31 06:33:00,
2013-03-31 02:38:00,54.6,51.1,30.08,SSE,148,5.0,8.0,88,0.00,,---,0.00,VWS V14.01,2013-03-31 06:38:00,
2013-03-31 02:43:00,54.5,51.3,30.08,South,170,7.0,8.0,89,0.00,,---,0.00,VWS V14.01,2013-03-31 06:43:00,
2013-03-31 02:48:00,54.5,51.3,30.08,South,175,4.0,9.0,89,0.00,,---,0.00,VWS V14.01,2013-03-31 06:48:00,
2013-03-31 02:53:00,54.5,51.3,30.08,South,169,5.0,9.0,89,0.00,,---,0.00,VWS V14.01,2013-03-31 06:53:00,
2013-03-31 02:58:00,54.5,51.3,30.08,South,172,7.0,7.0,89,0.00,,---,0.00,VWS V14.01,2013-03-31 06:58:00,
2013-03-31 03:04:00,54.5,51.6,30.08,SE,146,6.0,9.0,90,0.00,,---,0.00,VWS V14.01,2013-03-31 07:04:00,
2013-03-31 03:09:00,54.5,51.6,30.08,South,173,4.0,9.0,90,0.00,,---,0.00,VWS V14.01,2013-03-31 07:09:00,
2013-03-31 03:14:00,54.5,51.6,30.07,SSE,154,4.0,10.0,90,0.00,,---,0.00,VWS V14.01,2013-03-31 07:14:00,
2013-03-31 03:19:00,54.4,51.5,30.07,SE,132,7.0,10.0,90,0.00,,---,0.00,VWS V14.01,2013-03-31 07:19:00,
2013-03-31 03:24:00,54.4,51.5,30.07,SSE,156,2.0,10.0,90,0.00,,---,0.00,VWS V14.01,2013-03-31 07:24:00,
2013-03-31 03:29:00,54.4,51.8,30.06,SSE,158,4.0,6.0,91,0.00,,---,0.00,VWS V14.01,2013-03-31 07:29:00,
2013-03-31 03:34:00,54.5,51.9,30.06,SSE,152,3.0,9.0,91,0.00,,---,0.00,VWS V14.01,2013-03-31 07:34:00,
2013-03-31 03:39:00,54.5,51.9,30.06,South,173,4.0,9.0,91,0.00,,---,0.00,VWS V14.01,2013-03-31 07:39:00,
2013-03-31 03:44:00,54.5,51.9,30.06,SE,146,4.0,9.0,91,0.00,,---,0.00,VWS V14.01,2013-03-31 07:44:00,
2013-03-31 03:49:00,54.5,51.9,30.06,South,182,5.0,9.0,91,0.00,,---,0.00,VWS V14.01,2013-03-31 07:49:00,
2013-03-31 03:54:00,54.5,51.9,30.06,SSE,163,7.0,9.0,91,0.00,,---,0.00,VWS V14.01,2013-03-31 07:54:00,
2013-03-31 04:00:00,54.5,51.9,30.06,SSE,163,4.0,9.0,91,0.00,,---,0.00,VWS V14.01,2013-03-31 08:00:00,
2013-03-31 04:05:00,54.5,51.9,30.06,South,169,5.0,9.0,91,0.00,,---,0.00,VWS V14.01,2013-03-31 08:05:00,
2013-03-31 04:10:00,54.6,52.0,30.06,South,180,5.0,10.0,91,0.00,,---,0.00,VWS V14.01,2013-03-31 08:10:00,
2013-03-31 04:15:00,54.6,52.3,30.05,SSE,153,11.0,11.0,92,0.00,,---,0.00,VWS V14.01,2013-03-31 08:15:00,
2013-03-31 04:20:00,54.6,52.3,30.05,South,185,9.0,11.0,92,0.00,,---,0.00,VWS V14.01,2013-03-31 08:20:00,
2013-03-31 04:25:00,54.6,52.0,30.05,SE,132,5.0,11.0,91,0.00,,---,0.00,VWS V14.01,2013-03-31 08:25:00,
2013-03-31 04:30:00,54.6,52.0,30.05,SSE,163,11.0,11.0,91,0.00,,---,0.00,VWS V14.01,2013-03-31 08:30:00,
2013-03-31 04:35:00,54.6,52.0,30.04,SE,134,6.0,11.0,91,0.00,,---,0.00,VWS V14.01,2013-03-31 08:35:00,
2013-03-31 04:40:00,54.6,52.3,30.05,SE,140,5.0,12.0,92,0.00,,---,0.00,VWS V14.01,2013-03-31 08:40:00,
2013-03-31 04:45:00,54.6,52.0,30.05,SSE,157,7.0,12.0,91,0.00,,---,0.00,VWS V14.01,2013-03-31 08:45:00,
2013-03-31 04:50:00,54.6,52.0,30.04,South,186,7.0,12.0,91,0.00,,---,0.00,VWS V14.01,2013-03-31 08:50:00,
2013-03-31 04:55:00,54.7,52.4,30.04,South,178,10.0,12.0,92,0.00,,---,0.00,VWS V14.01,2013-03-31 08:55:00,
2013-03-31 05:01:00,54.7,52.1,30.04,SSE,167,7.0,12.0,91,0.00,,---,0.00,VWS V14.01,2013-03-31 09:01:00,
2013-03-31 05:06:00,54.8,52.2,30.03,South,176,6.0,12.0,91,0.00,,---,0.00,VWS V14.01,2013-03-31 09:06:00,
2013-03-31 05:11:00,54.8,52.2,30.03,SSE,165,13.0,13.0,91,0.00,,---,0.00,VWS V14.01,2013-03-31 09:11:00,
2013-03-31 05:16:00,54.9,52.3,30.03,SSE,163,7.0,13.0,91,0.00,,---,0.00,VWS V14.01,2013-03-31 09:16:00,
2013-03-31 05:21:00,54.9,52.3,30.03,SSW,202,8.0,13.0,91,0.00,,---,0.00,VWS V14.01,2013-03-31 09:21:00,
2013-03-31 05:26:00,55.0,52.4,30.03,SE,145,8.0,13.0,91,0.00,,---,0.00,VWS V14.01,2013-03-31 09:26:00,
2013-03-31 05:31:00,55.0,52.4,30.03,South,179,6.0,12.0,91,0.00,,---,0.00,VWS V14.01,2013-03-31 09:31:00,
2013-03-31 05:36:00,55.1,52.2,30.03,SSE,157,9.0,14.0,90,0.00,,---,0.00,VWS V14.01,2013-03-31 09:36:00,
2013-03-31 05:42:00,55.1,52.2,30.03,South,173,5.0,14.0,90,0.00,,---,0.00,VWS V14.01,2013-03-31 09:42:00,
2013-03-31 05:47:00,55.2,52.3,30.03,SSE,155,9.0,14.0,90,0.00,,---,0.00,VWS V14.01,2013-03-31 09:47:00,
2013-03-31 05:52:00,55.2,52.3,30.02,South,190,7.0,14.0,90,0.00,,---,0.00,VWS V14.01,2013-03-31 09:52:00,
2013-03-31 05:57:00,55.2,52.3,30.02,SSE,158,8.0,15.0,90,0.00,,---,0.00,VWS V14.01,2013-03-31 09:57:00,
2013-03-31 06:02:00,55.3,52.4,30.03,South,175,10.0,16.0,90,0.00,,---,0.00,VWS V14.01,2013-03-31 10:02:00,
2013-03-31 06:07:00,55.3,52.4,30.03,South,173,10.0,16.0,90,0.00,,---,0.00,VWS V14.01,2013-03-31 10:07:00,
2013-03-31 06:12:00,55.3,52.1,30.02,SSE,167,9.0,16.0,89,0.00,,---,0.00,VWS V14.01,2013-03-31 10:12:00,
2013-03-31 06:17:00,55.5,52.3,30.02,SSE,167,6.0,16.0,89,0.00,,---,0.00,VWS V14.01,2013-03-31 10:17:00,
2013-03-31 06:22:00,55.6,52.4,30.03,South,186,9.0,16.0,89,0.00,,---,0.00,VWS V14.01,2013-03-31 10:22:00,
2013-03-31 06:27:00,55.7,52.5,30.03,SSE,156,8.0,16.0,89,0.00,,---,0.00,VWS V14.01,2013-03-31 10:27:00,
2013-03-31 06:32:00,55.7,52.5,30.03,SSE,165,6.0,11.0,89,0.00,,---,0.00,VWS V14.01,2013-03-31 10:32:00,
2013-03-31 06:37:00,55.7,52.5,30.02,SSE,150,5.0,11.0,89,0.00,,---,0.00,VWS V14.01,2013-03-31 10:37:00,
2013-03-31 06:42:00,55.7,52.5,30.02,SSE,155,9.0,11.0,89,0.00,,---,0.00,VWS V14.01,2013-03-31 10:42:00,
2013-03-31 06:47:00,55.7,52.5,30.02,SSW,193,6.0,11.0,89,0.00,,---,0.00,VWS V14.01,2013-03-31 10:47:00,
2013-03-31 06:53:00,55.8,52.6,30.02,ESE,117,9.0,11.0,89,0.00,,---,0.00,VWS V14.01,2013-03-31 10:53:00,
2013-03-31 06:58:00,55.8,52.6,30.02,SSW,194,6.0,7.0,89,0.00,,---,0.00,VWS V14.01,2013-03-31 10:58:00,
2013-03-31 07:03:00,55.9,52.7,30.02,South,178,6.0,13.0,89,0.00,,---,0.00,VWS V14.01,2013-03-31 11:03:00,
2013-03-31 07:08:00,55.9,52.7,30.02,South,169,5.0,15.0,89,0.00,,---,0.00,VWS V14.01,2013-03-31 11:08:00,
2013-03-31 07:13:00,56.0,52.8,30.01,South,175,14.0,15.0,89,0.00,,---,0.00,VWS V14.01,2013-03-31 11:13:00,
2013-03-31 07:18:00,56.2,53.3,30.01,South,184,11.0,15.0,90,0.00,,---,0.00,VWS V14.01,2013-03-31 11:18:00,
2013-03-31 07:23:00,56.3,53.1,30.02,South,180,11.0,15.0,89,0.00,,---,0.00,VWS V14.01,2013-03-31 11:23:00,
2013-03-31 07:28:00,56.4,53.2,30.02,South,186,6.0,7.0,89,0.00,,---,0.00,VWS V14.01,2013-03-31 11:28:00,
2013-03-31 07:33:00,56.4,53.2,30.02,South,179,10.0,11.0,89,0.00,,---,0.00,VWS V14.01,2013-03-31 11:33:00,
2013-03-31 07:38:00,56.5,53.3,30.02,SSW,196,8.0,13.0,89,0.00,,---,0.00,VWS V14.01,2013-03-31 11:38:00,
2013-03-31 07:43:00,56.6,53.4,30.01,South,188,11.0,14.0,89,0.00,,---,0.00,VWS V14.01,2013-03-31 11:43:00,
2013-03-31 07:48:00,56.7,53.5,30.02,SSW,196,13.0,16.0,89,0.00,,---,0.00,VWS V14.01,2013-03-31 11:48:00,
2013-03-31 07:53:00,56.8,53.6,30.01,SSW,203,12.0,16.0,89,0.00,,---,0.00,VWS V14.01,2013-03-31 11:53:00,
2013-03-31 07:58:00,56.9,54.0,30.01,SSW,207,11.0,14.0,90,0.00,,---,0.00,VWS V14.01,2013-03-31 11:58:00,
2013-03-31 08:04:00,56.9,53.7,30.01,SSW,194,12.0,17.0,89,0.00,,---,0.00,VWS V14.01,2013-03-31 12:04:00,
2013-03-31 08:09:00,57.0,53.8,30.02,SSW,200,8.0,17.0,89,0.00,,---,0.00,VWS V14.01,2013-03-31 12:09:00,
2013-03-31 08:14:00,57.1,54.2,30.01,SSW,204,12.0,17.0,90,0.00,,---,0.00,VWS V14.01,2013-03-31 12:14:00,
2013-03-31 08:19:00,57.2,54.3,30.02,SSW,205,14.0,17.0,90,0.00,,---,0.00,VWS V14.01,2013-03-31 12:19:00,
2013-03-31 08:24:00,57.3,54.1,30.02,SSW,198,12.0,17.0,89,0.00,,---,0.00,VWS V14.01,2013-03-31 12:24:00,
2013-03-31 08:29:00,57.4,54.5,30.02,SSW,198,12.0,13.0,90,0.00,,---,0.00,VWS V14.01,2013-03-31 12:29:00,
2013-03-31 08:34:00,57.7,54.8,30.02,SW,221,10.0,15.0,90,0.00,,---,0.00,VWS V14.01,2013-03-31 12:34:00,
2013-03-31 08:39:00,57.9,55.0,30.01,SW,225,15.0,17.0,90,0.00,,---,0.00,VWS V14.01,2013-03-31 12:39:00,
2013-03-31 08:44:00,58.1,54.9,30.01,SSW,206,12.0,17.0,89,0.00,,---,0.00,VWS V14.01,2013-03-31 12:44:00,
2013-03-31 08:49:00,58.1,54.9,30.01,WSW,238,10.0,17.0,89,0.00,,---,0.00,VWS V14.01,2013-03-31 12:49:00,
2013-03-31 08:54:00,58.2,55.0,30.01,SSW,213,12.0,17.0,89,0.00,,---,0.00,VWS V14.01,2013-03-31 12:54:00,
2013-03-31 08:59:00,58.1,54.9,30.01,SSW,192,13.0,15.0,89,0.00,,---,0.00,VWS V14.01,2013-03-31 12:59:00,
2013-03-31 09:04:00,58.0,54.8,30.01,SSW,211,7.0,15.0,89,0.00,,---,0.00,VWS V14.01,2013-03-31 13:04:00,
2013-03-31 09:09:00,57.9,54.7,30.01,SW,229,11.0,15.0,89,0.00,,---,0.00,VWS V14.01,2013-03-31 13:09:00,
2013-03-31 09:14:00,57.8,54.6,30.01,West,259,4.0,15.0,89,0.00,,---,0.00,VWS V14.01,2013-03-31 13:14:00,
2013-03-31 09:20:00,57.7,54.8,30.01,WSW,244,9.0,15.0,90,0.00,,---,0.00,VWS V14.01,2013-03-31 13:20:00,
2013-03-31 09:25:00,57.7,54.8,30.01,SSW,209,5.0,15.0,90,0.00,,---,0.00,VWS V14.01,2013-03-31 13:25:00,
2013-03-31 09:30:00,57.4,54.5,30.01,SW,233,12.0,14.0,90,0.00,,---,0.00,VWS V14.01,2013-03-31 13:30:00,
2013-03-31 09:35:00,57.2,54.3,30.01,SSW,211,10.0,14.0,90,0.00,,---,0.00,VWS V14.01,2013-03-31 13:35:00,
2013-03-31 09:40:00,57.0,54.1,30.01,SW,223,11.0,14.0,90,0.00,,---,0.00,VWS V14.01,2013-03-31 13:40:00,
2013-03-31 09:45:00,56.9,54.3,30.01,WSW,239,6.0,14.0,91,0.00,,---,0.00,VWS V14.01,2013-03-31 13:45:00,
2013-03-31 09:50:00,56.9,54.3,30.01,SSW,207,7.0,14.0,91,0.00,,---,0.00,VWS V14.01,2013-03-31 13:50:00,
2013-03-31 09:55:00,56.9,54.3,30.01,SW,227,11.0,14.0,91,0.00,,---,0.00,VWS V14.01,2013-03-31 13:55:00,
2013-03-31 10:00:00,56.9,54.3,30.01,SSW,208,5.0,13.0,91,0.00,,---,0.00,VWS V14.01,2013-03-31 14:00:00,
2013-03-31 10:05:00,56.9,54.3,30.01,SSW,202,11.0,13.0,91,0.00,,---,0.00,VWS V14.01,2013-03-31 14:05:00,
2013-03-31 10:10:00,56.9,54.3,30.01,SSW,212,10.0,14.0,91,0.00,,---,0.00,VWS V14.01,2013-03-31 14:10:00,
2013-03-31 10:15:00,56.8,54.2,30.01,SSW,211,12.0,14.0,91,0.00,,---,0.00,VWS V14.01,2013-03-31 14:15:00,
2013-03-31 10:21:00,56.7,54.4,30.01,SSW,208,10.0,16.0,92,0.00,,---,0.00,VWS V14.01,2013-03-31 14:21:00,
2013-03-31 10:26:00,56.7,54.1,30.00,South,187,13.0,16.0,91,0.00,,---,0.00,VWS V14.01,2013-03-31 14:26:00,
2013-03-31 10:31:00,56.6,54.0,30.00,SW,217,11.0,13.0,91,0.00,,---,0.00,VWS V14.01,2013-03-31 14:31:00,
2013-03-31 10:36:00,56.6,54.0,30.00,SSW,202,9.0,14.0,91,0.00,,---,0.00,VWS V14.01,2013-03-31 14:36:00,
2013-03-31 10:41:00,56.7,54.1,30.00,SW,230,10.0,17.0,91,0.00,,---,0.00,VWS V14.01,2013-03-31 14:41:00,
2013-03-31 10:46:00,56.8,54.2,30.00,SSW,210,12.0,17.0,91,0.00,,---,0.00,VWS V14.01,2013-03-31 14:46:00,
2013-03-31 10:51:00,56.8,54.2,30.00,WSW,248,8.0,17.0,91,0.00,,---,0.00,VWS V14.01,2013-03-31 14:51:00,
2013-03-31 10:56:00,56.7,54.1,29.99,SSW,206,9.0,17.0,91,0.00,,---,0.00,VWS V14.01,2013-03-31 14:56:00,
2013-03-31 11:02:00,56.6,54.0,29.99,SSW,202,11.0,14.0,91,0.00,,---,0.00,VWS V14.01,2013-03-31 15:02:00,
2013-03-31 11:07:00,56.7,54.1,29.99,SW,215,13.0,16.0,91,0.00,,---,0.00,VWS V14.01,2013-03-31 15:07:00,
2013-03-31 11:12:00,56.7,54.1,29.99,SSW,211,14.0,17.0,91,0.00,,---,0.00,VWS V14.01,2013-03-31 15:12:00,
2013-03-31 11:17:00,56.8,54.2,29.99,SSW,200,13.0,17.0,91,0.00,,---,0.00,VWS V14.01,2013-03-31 15:17:00,
2013-03-31 11:22:00,56.9,54.3,29.99,SSW,201,15.0,20.0,91,0.00,,---,0.00,VWS V14.01,2013-03-31 15:22:00,
2013-03-31 11:27:00,57.0,54.1,29.99,SSW,200,13.0,20.0,90,0.00,,---,0.00,VWS V14.01,2013-03-31 15:27:00,
2013-03-31 11:32:00,57.0,54.1,29.98,SSW,205,10.0,21.0,90,0.00,,---,0.00,VWS V14.01,2013-03-31 15:32:00,
2013-03-31 11:38:00,57.0,54.1,29.98,SSW,202,13.0,21.0,90,0.00,,---,0.00,VWS V14.01,2013-03-31 15:38:00,
2013-03-31 11:43:00,57.1,54.2,29.98,SSW,208,11.0,21.0,90,0.00,,---,0.00,VWS V14.01,2013-03-31 15:43:00,
2013-03-31 11:48:00,57.2,54.3,29.98,SSW,198,19.0,21.0,90,0.00,,---,0.00,VWS V14.01,2013-03-31 15:48:00,
2013-03-31 11:53:00,57.6,54.7,29.98,SSW,205,15.0,21.0,90,0.00,,---,0.00,VWS V14.01,2013-03-31 15:53:00,
2013-03-31 11:58:00,57.7,54.5,29.98,SSW,194,17.0,19.0,89,0.00,,---,0.00,VWS V14.01,2013-03-31 15:58:00,
2013-03-31 12:03:00,57.9,54.4,29.98,SSW,204,17.0,21.0,88,0.00,,---,0.00,VWS V14.01,2013-03-31 16:03:00,
2013-03-31 12:08:00,58.0,54.5,29.97,SW,224,24.0,25.0,88,0.00,,---,0.00,VWS V14.01,2013-03-31 16:08:00,
2013-03-31 12:13:00,58.4,54.5,29.97,SSW,213,19.0,25.0,87,0.00,,---,0.00,VWS V14.01,2013-03-31 16:13:00,
2013-03-31 12:18:00,58.7,54.8,29.97,SW,224,19.0,25.0,87,0.00,,---,0.00,VWS V14.01,2013-03-31 16:18:00,
2013-03-31 12:23:00,58.9,54.7,29.97,SSW,209,14.0,25.0,86,0.00,,---,0.00,VWS V14.01,2013-03-31 16:23:00,
2013-03-31 12:28:00,58.8,54.6,29.97,SSW,206,23.0,25.0,86,0.00,,---,0.00,VWS V14.01,2013-03-31 16:28:00,
2013-03-31 12:33:00,58.4,53.9,29.97,SW,230,19.0,25.0,85,0.00,,---,0.00,VWS V14.01,2013-03-31 16:33:00,
2013-03-31 12:38:00,58.1,53.9,29.97,SSW,208,22.0,27.0,86,0.00,,---,0.00,VWS V14.01,2013-03-31 16:38:00,
2013-03-31 12:43:00,57.9,53.7,29.97,SSW,213,12.0,27.0,86,0.00,,---,0.00,VWS V14.01,2013-03-31 16:43:00,
2013-03-31 12:48:00,57.8,53.7,29.97,SSW,208,20.0,27.0,86,0.00,,---,0.00,VWS V14.01,2013-03-31 16:48:00,
2013-03-31 12:54:00,57.9,54.1,29.97,SSW,209,23.0,27.0,87,0.00,,---,0.00,VWS V14.01,2013-03-31 16:54:00,
2013-03-31 12:59:00,58.2,54.0,29.97,SW,215,18.0,19.0,86,0.00,,---,0.00,VWS V14.01,2013-03-31 16:59:00,
2013-03-31 13:04:00,58.1,53.9,29.96,SW,227,20.0,22.0,86,0.00,,---,0.00,VWS V14.01,2013-03-31 17:04:00,
2013-03-31 13:09:00,58.0,53.8,29.95,SSW,198,20.0,25.0,86,0.00,,---,0.00,VWS V14.01,2013-03-31 17:09:00,
2013-03-31 13:14:00,58.1,53.9,29.95,SW,217,13.0,25.0,86,0.00,,---,0.00,VWS V14.01,2013-03-31 17:14:00,
2013-03-31 13:19:00,58.3,54.1,29.95,South,186,22.0,25.0,86,0.00,,---,0.00,VWS V14.01,2013-03-31 17:19:00,
2013-03-31 13:24:00,58.6,54.4,29.93,SSW,198,21.0,25.0,86,0.00,,---,0.00,VWS V14.01,2013-03-31 17:24:00,
2013-03-31 13:29:00,58.5,54.0,29.93,SSW,212,13.0,28.0,85,0.00,,---,0.00,VWS V14.01,2013-03-31 17:29:00,
2013-03-31 13:34:00,58.7,54.5,29.93,SW,217,18.0,30.0,86,0.00,,---,0.00,VWS V14.01,2013-03-31 17:34:00,
2013-03-31 13:39:00,58.6,54.1,29.93,WSW,254,16.0,31.0,85,0.00,,---,0.00,VWS V14.01,2013-03-31 17:39:00,
2013-03-31 13:44:00,58.5,54.0,29.93,SSW,210,24.0,32.0,85,0.00,,---,0.00,VWS V14.01,2013-03-31 17:44:00,
2013-03-31 13:49:00,58.5,54.0,29.92,SW,217,21.0,32.0,85,0.00,,---,0.00,VWS V14.01,2013-03-31 17:49:00,
2013-03-31 13:54:00,58.5,54.0,29.92,SSW,213,18.0,32.0,85,0.00,,---,0.00,VWS V14.01,2013-03-31 17:54:00,
2013-03-31 13:59:00,58.6,54.1,29.91,SSW,211,23.0,25.0,85,0.00,,---,0.00,VWS V14.01,2013-03-31 17:59:00,
2013-03-31 14:05:00,58.5,54.0,29.92,SW,214,22.0,28.0,85,0.00,,---,0.00,VWS V14.01,2013-03-31 18:05:00,
2013-03-31 14:10:00,58.7,54.2,29.91,SW,219,20.0,28.0,85,0.00,,---,0.00,VWS V14.01,2013-03-31 18:10:00,
2013-03-31 14:15:00,58.8,54.0,29.91,SW,225,25.0,28.0,84,0.00,,---,0.00,VWS V14.01,2013-03-31 18:15:00,
2013-03-31 14:20:00,58.6,54.1,29.90,SSW,204,22.0,29.0,85,0.00,,---,0.00,VWS V14.01,2013-03-31 18:20:00,
2013-03-31 14:25:00,58.6,53.8,29.90,SSW,211,15.0,29.0,84,0.00,,---,0.00,VWS V14.01,2013-03-31 18:25:00,
2013-03-31 14:30:00,58.8,54.0,29.90,SSW,211,18.0,28.0,84,0.00,,---,0.00,VWS V14.01,2013-03-31 18:30:00,
2013-03-31 14:35:00,59.3,53.8,29.90,SSW,212,27.0,29.0,82,0.00,,---,0.00,VWS V14.01,2013-03-31 18:35:00,
2013-03-31 14:40:00,59.6,53.8,29.89,SSW,206,23.0,29.0,81,0.00,,---,0.00,VWS V14.01,2013-03-31 18:40:00,
2013-03-31 14:45:00,60.0,53.8,29.89,SW,219,19.0,34.0,80,0.00,,---,0.00,VWS V14.01,2013-03-31 18:45:00,
2013-03-31 14:50:00,60.3,54.1,29.89,SSW,206,22.0,34.0,80,0.00,,---,0.00,VWS V14.01,2013-03-31 18:50:00,
2013-03-31 14:55:00,60.4,54.2,29.89,WSW,237,23.0,35.0,80,0.00,,---,0.00,VWS V14.01,2013-03-31 18:55:00,
2013-03-31 15:00:00,60.6,54.4,29.89,SW,227,18.0,31.0,80,0.00,,---,0.00,VWS V14.01,2013-03-31 19:00:00,
2013-03-31 15:06:00,60.7,54.8,29.89,SW,221,22.0,33.0,81,0.00,,---,0.00,VWS V14.01,2013-03-31 19:06:00,
2013-03-31 15:11:00,60.3,54.5,29.89,SSW,200,20.0,33.0,81,0.00,,---,0.00,VWS V14.01,2013-03-31 19:11:00,
2013-03-31 15:16:00,60.3,54.8,29.89,WSW,250,19.0,33.0,82,0.00,,---,0.00,VWS V14.01,2013-03-31 19:16:00,
2013-03-31 15:21:00,60.3,54.8,29.90,SW,229,16.0,33.0,82,0.00,,---,0.00,VWS V14.01,2013-03-31 19:21:00,
2013-03-31 15:27:00,60.2,55.0,29.89,WSW,240,15.0,33.0,83,0.00,,---,0.00,VWS V14.01,2013-03-31 19:27:00,
2013-03-31 15:32:00,60.5,55.3,29.89,SW,215,15.0,31.0,83,0.00,,---,0.00,VWS V14.01,2013-03-31 19:32:00,
2013-03-31 15:37:00,60.7,55.2,29.89,SW,217,24.0,31.0,82,0.00,,---,0.00,VWS V14.01,2013-03-31 19:37:00,
2013-03-31 15:42:00,60.8,55.3,29.88,SW,214,21.0,31.0,82,0.00,,---,0.00,VWS V14.01,2013-03-31 19:42:00,
2013-03-31 15:47:00,60.6,55.1,29.88,SSW,200,18.0,31.0,82,0.00,,---,0.00,VWS V14.01,2013-03-31 19:47:00,
2013-03-31 15:52:00,60.4,55.2,29.88,SW,220,19.0,31.0,83,0.00,,---,0.00,VWS V14.01,2013-03-31 19:52:00,
2013-03-31 15:57:00,60.0,55.2,29.88,SW,226,16.0,31.0,84,0.00,,---,0.00,VWS V14.01,2013-03-31 19:57:00,
2013-03-31 16:02:00,59.9,55.1,29.88,South,190,24.0,30.0,84,0.00,,---,0.00,VWS V14.01,2013-03-31 20:02:00,
2013-03-31 16:08:00,60.4,55.5,29.87,SW,223,27.0,30.0,84,0.00,,---,0.00,VWS V14.01,2013-03-31 20:08:00,
2013-03-31 16:13:00,60.6,55.8,29.86,SW,228,23.0,30.0,84,0.00,,---,0.00,VWS V14.01,2013-03-31 20:13:00,
2013-03-31 16:18:00,61.0,55.8,29.86,SSW,207,23.0,30.0,83,0.00,,---,0.00,VWS V14.01,2013-03-31 20:18:00,
2013-03-31 16:23:00,60.9,55.7,29.86,SW,229,18.0,30.0,83,0.00,,---,0.00,VWS V14.01,2013-03-31 20:23:00,
2013-03-31 16:28:00,60.8,55.6,29.87,SSW,203,18.0,18.0,83,0.00,,---,0.00,VWS V14.01,2013-03-31 20:28:00,
2013-03-31 16:33:00,60.5,55.7,29.86,SW,221,24.0,25.0,84,0.00,,---,0.00,VWS V14.01,2013-03-31 20:33:00,
2013-03-31 16:38:00,60.8,55.9,29.86,SSW,209,18.0,27.0,84,0.00,,---,0.00,VWS V14.01,2013-03-31 20:38:00,
2013-03-31 16:43:00,60.8,55.6,29.86,SSW,208,14.0,27.0,83,0.00,,---,0.00,VWS V14.01,2013-03-31 20:43:00,
2013-03-31 16:48:00,60.7,55.5,29.86,SSW,209,20.0,28.0,83,0.00,,---,0.00,VWS V14.01,2013-03-31 20:48:00,
2013-03-31 16:53:00,60.3,55.5,29.86,SW,234,22.0,33.0,84,0.00,,---,0.00,VWS V14.01,2013-03-31 20:53:00,
2013-03-31 16:58:00,60.1,55.3,29.86,SW,223,13.0,20.0,84,0.00,,---,0.00,VWS V14.01,2013-03-31 20:58:00,
2013-03-31 17:03:00,59.9,55.1,29.86,SW,224,14.0,26.0,84,0.00,,---,0.00,VWS V14.01,2013-03-31 21:03:00,
2013-03-31 17:08:00,59.8,55.0,29.87,SW,223,18.0,26.0,84,0.00,,---,0.00,VWS V14.01,2013-03-31 21:08:00,
2013-03-31 17:13:00,59.6,55.1,29.87,SW,221,24.0,26.0,85,0.00,,---,0.00,VWS V14.01,2013-03-31 21:13:00,
2013-03-31 17:18:00,59.8,55.3,29.87,SW,217,19.0,28.0,85,0.00,,---,0.00,VWS V14.01,2013-03-31 21:18:00,
2013-03-31 17:23:00,59.9,55.4,29.87,SSW,213,23.0,28.0,85,0.00,,---,0.00,VWS V14.01,2013-03-31 21:23:00,
2013-03-31 17:28:00,60.0,55.5,29.87,SSW,204,15.0,21.0,85,0.00,,---,0.00,VWS V14.01,2013-03-31 21:28:00,
2013-03-31 17:33:00,60.1,55.6,29.87,WSW,246,16.0,25.0,85,0.00,,---,0.00,VWS V14.01,2013-03-31 21:33:00,
2013-03-31 17:38:00,60.1,55.6,29.86,WSW,255,15.0,25.0,85,0.00,,---,0.00,VWS V14.01,2013-03-31 21:38:00,
2013-03-31 17:43:00,60.3,55.5,29.86,SW,234,14.0,25.0,84,0.00,,---,0.00,VWS V14.01,2013-03-31 21:43:00,
2013-03-31 17:49:00,60.5,55.7,29.87,WSW,238,13.0,25.0,84,0.00,,---,0.00,VWS V14.01,2013-03-31 21:49:00,
2013-03-31 17:54:00,60.5,55.7,29.86,SW,229,20.0,26.0,84,0.00,,---,0.00,VWS V14.01,2013-03-31 21:54:00,
2013-03-31 17:59:00,60.7,55.8,29.87,SSW,202,16.0,20.0,84,0.00,,---,0.00,VWS V14.01,2013-03-31 21:59:00,
2013-03-31 18:04:00,60.7,55.8,29.87,SW,225,15.0,24.0,84,0.00,,---,0.00,VWS V14.01,2013-03-31 22:04:00,
2013-03-31 18:09:00,60.7,55.5,29.87,SW,221,14.0,24.0,83,0.00,,---,0.00,VWS V14.01,2013-03-31 22:09:00,
2013-03-31 18:14:00,60.7,55.5,29.87,SW,231,14.0,24.0,83,0.00,,---,0.00,VWS V14.01,2013-03-31 22:14:00,
2013-03-31 18:19:00,60.8,55.6,29.87,WSW,240,11.0,24.0,83,0.00,,---,0.00,VWS V14.01,2013-03-31 22:19:00,
2013-03-31 18:24:00,60.6,55.4,29.87,WSW,257,11.0,24.0,83,0.00,,---,0.00,VWS V14.01,2013-03-31 22:24:00,
2013-03-31 18:30:00,60.3,55.1,29.87,SW,215,14.0,20.0,83,0.00,,---,0.00,VWS V14.01,2013-03-31 22:30:00,
2013-03-31 18:35:00,59.8,55.0,29.88,SSW,206,13.0,21.0,84,0.00,,---,0.00,VWS V14.01,2013-03-31 22:35:00,
2013-03-31 18:40:00,59.6,54.8,29.88,SW,231,10.0,21.0,84,0.00,,---,0.00,VWS V14.01,2013-03-31 22:40:00,
2013-03-31 18:45:00,59.6,55.1,29.88,SSW,209,16.0,22.0,85,0.00,,---,0.00,VWS V14.01,2013-03-31 22:45:00,
2013-03-31 18:50:00,59.6,55.1,29.88,SSW,209,11.0,22.0,85,0.00,,---,0.00,VWS V14.01,2013-03-31 22:50:00,
2013-03-31 18:55:00,59.2,54.7,29.88,SW,233,13.0,22.0,85,0.00,,---,0.00,VWS V14.01,2013-03-31 22:55:00,
2013-03-31 19:00:00,59.1,54.6,29.88,SW,223,14.0,15.0,85,0.00,,---,0.00,VWS V14.01,2013-03-31 23:00:00,
2013-03-31 19:05:00,58.7,54.5,29.88,SW,227,11.0,17.0,86,0.00,,---,0.00,VWS V14.01,2013-03-31 23:05:00,
2013-03-31 19:10:00,58.5,54.3,29.88,SSW,196,17.0,17.0,86,0.00,,---,0.00,VWS V14.01,2013-03-31 23:10:00,
2013-03-31 19:15:00,58.2,54.4,29.88,WSW,248,13.0,17.0,87,0.00,,---,0.00,VWS V14.01,2013-03-31 23:15:00,
2013-03-31 19:20:00,58.0,54.2,29.87,SW,231,15.0,18.0,87,0.00,,---,0.00,VWS V14.01,2013-03-31 23:20:00,
2013-03-31 19:25:00,58.0,54.5,29.87,SW,228,9.0,18.0,88,0.00,,---,0.00,VWS V14.01,2013-03-31 23:25:00,
2013-03-31 19:30:00,57.9,54.4,29.87,SW,234,14.0,17.0,88,0.00,,---,0.00,VWS V14.01,2013-03-31 23:30:00,
2013-03-31 19:35:00,57.9,54.4,29.88,SW,236,14.0,17.0,88,0.00,,---,0.00,VWS V14.01,2013-03-31 23:35:00,
2013-03-31 19:41:00,57.8,54.3,29.88,SW,219,16.0,18.0,88,0.00,,---,0.00,VWS V14.01,2013-03-31 23:41:00,
2013-03-31 19:46:00,57.8,54.6,29.87,SW,229,11.0,18.0,89,0.00,,---,0.00,VWS V14.01,2013-03-31 23:46:00,
2013-03-31 19:51:00,57.9,54.7,29.88,SSW,209,12.0,18.0,89,0.00,,---,0.00,VWS V14.01,2013-03-31 23:51:00,
2013-03-31 19:56:00,58.0,54.8,29.88,SW,226,10.0,18.0,89,0.00,,---,0.00,VWS V14.01,2013-03-31 23:56:00,
2013-03-31 20:01:00,58.1,54.9,29.88,SW,235,7.0,17.0,89,0.00,,---,0.00,VWS V14.01,2013-04-01 00:01:00,
2013-03-31 20:06:00,58.0,54.5,29.88,SW,225,10.0,17.0,88,0.00,,---,0.00,VWS V14.01,2013-04-01 00:06:00,
2013-03-31 20:11:00,57.9,54.4,29.88,SW,219,11.0,17.0,88,0.00,,---,0.00,VWS V14.01,2013-04-01 00:11:00,
2013-03-31 20:16:00,57.8,54.6,29.87,SW,223,11.0,17.0,89,0.00,,---,0.00,VWS V14.01,2013-04-01 00:16:00,
2013-03-31 20:21:00,57.6,54.4,29.87,SW,217,13.0,17.0,89,0.00,,---,0.00,VWS V14.01,2013-04-01 00:21:00,
2013-03-31 20:26:00,57.5,54.3,29.88,WSW,240,7.0,17.0,89,0.00,,---,0.00,VWS V14.01,2013-04-01 00:26:00,
2013-03-31 20:32:00,57.6,54.7,29.88,WSW,240,12.0,14.0,90,0.00,,---,0.00,VWS V14.01,2013-04-01 00:32:00,
2013-03-31 20:37:00,57.8,54.6,29.87,SW,229,9.0,15.0,89,0.00,,---,0.00,VWS V14.01,2013-04-01 00:37:00,
2013-03-31 20:42:00,57.9,54.7,29.88,WSW,237,7.0,15.0,89,0.00,,---,0.00,VWS V14.01,2013-04-01 00:42:00,
2013-03-31 20:47:00,58.1,54.9,29.88,WSW,247,10.0,15.0,89,0.00,,---,0.00,VWS V14.01,2013-04-01 00:47:00,
2013-03-31 20:52:00,58.2,54.7,29.88,SW,221,14.0,16.0,88,0.00,,---,0.00,VWS V14.01,2013-04-01 00:52:00,
2013-03-31 20:57:00,58.2,54.7,29.88,SW,232,6.0,17.0,88,0.00,,---,0.00,VWS V14.01,2013-04-01 00:57:00,
2013-03-31 21:02:00,58.1,54.6,29.88,SW,228,9.0,15.0,88,0.00,,---,0.00,VWS V14.01,2013-04-01 01:02:00,
2013-03-31 21:07:00,58.1,54.6,29.88,SW,228,12.0,16.0,88,0.00,,---,0.00,VWS V14.01,2013-04-01 01:07:00,
2013-03-31 21:12:00,58.0,54.5,29.88,SSW,203,10.0,17.0,88,0.00,,---,0.00,VWS V14.01,2013-04-01 01:12:00,
2013-03-31 21:17:00,58.0,54.5,29.89,SSW,203,13.0,17.0,88,0.00,,---,0.00,VWS V14.01,2013-04-01 01:17:00,
2013-03-31 21:22:00,58.2,54.7,29.89,West,263,13.0,17.0,88,0.00,,---,0.00,VWS V14.01,2013-04-01 01:22:00,
2013-03-31 21:28:00,58.5,55.0,29.89,SW,227,13.0,17.0,88,0.00,,---,0.00,VWS V14.01,2013-04-01 01:28:00,
2013-03-31 21:33:00,58.7,54.8,29.89,SW,233,18.0,18.0,87,0.00,,---,0.00,VWS V14.01,2013-04-01 01:33:00,
2013-03-31 21:38:00,59.0,55.1,29.89,SW,225,15.0,20.0,87,0.00,,---,0.00,VWS V14.01,2013-04-01 01:38:00,
2013-03-31 21:43:00,59.3,55.1,29.89,WSW,240,11.0,21.0,86,0.00,,---,0.00,VWS V14.01,2013-04-01 01:43:00,
2013-03-31 21:48:00,59.6,55.4,29.90,SW,223,12.0,21.0,86,0.00,,---,0.00,VWS V14.01,2013-04-01 01:48:00,
2013-03-31 21:53:00,60.1,55.6,29.90,WSW,238,15.0,21.0,85,0.00,,---,0.00,VWS V14.01,2013-04-01 01:53:00,
2013-03-31 21:58:00,60.3,55.5,29.90,SSW,192,11.0,12.0,84,0.00,,---,0.00,VWS V14.01,2013-04-01 01:58:00,
2013-03-31 22:03:00,60.4,55.2,29.91,WSW,245,8.0,18.0,83,0.00,,---,0.00,VWS V14.01,2013-04-01 02:03:00,
2013-03-31 22:08:00,60.8,55.9,29.91,WSW,237,15.0,23.0,84,0.00,,---,0.00,VWS V14.01,2013-04-01 02:08:00,
2013-03-31 22:13:00,61.4,56.5,29.91,SW,228,10.0,23.0,84,0.01,,---,0.01,VWS V14.01,2013-04-01 02:13:00,
2013-03-31 22:18:00,62.2,56.6,29.91,West,270,14.0,27.0,82,0.01,,---,0.01,VWS V14.01,2013-04-01 02:18:00,
2013-03-31 22:23:00,62.0,56.5,29.91,WSW,256,20.0,30.0,82,0.01,,---,0.01,VWS V14.01,2013-04-01 02:23:00,
2013-03-31 22:28:00,61.5,56.6,29.92,WSW,239,17.0,27.0,84,0.02,,---,0.02,VWS V14.01,2013-04-01 02:28:00,
2013-03-31 22:33:00,60.6,56.1,29.91,West,270,17.0,27.0,85,0.03,,---,0.03,VWS V14.01,2013-04-01 02:33:00,
2013-03-31 22:38:00,60.0,56.1,29.90,West,275,15.0,27.0,87,0.04,,---,0.04,VWS V14.01,2013-04-01 02:38:00,
2013-03-31 22:43:00,59.9,56.3,29.91,SW,217,12.0,27.0,88,0.05,,---,0.05,VWS V14.01,2013-04-01 02:43:00,
2013-03-31 22:48:00,59.8,56.6,29.90,SW,224,10.0,27.0,89,0.05,,---,0.05,VWS V14.01,2013-04-01 02:48:00,
2013-03-31 22:53:00,59.8,56.6,29.91,SW,234,10.0,27.0,89,0.05,,---,0.05,VWS V14.01,2013-04-01 02:53:00,
2013-03-31 22:58:00,59.7,56.8,29.90,WSW,248,9.0,15.0,90,0.05,,---,0.05,VWS V14.01,2013-04-01 02:58:00,
2013-03-31 23:03:00,59.6,56.7,29.90,SSW,210,8.0,15.0,90,0.05,,---,0.05,VWS V14.01,2013-04-01 03:03:00,
2013-03-31 23:08:00,59.6,56.7,29.90,WSW,245,10.0,15.0,90,0.05,,---,0.05,VWS V14.01,2013-04-01 03:08:00,
2013-03-31 23:14:00,59.3,56.4,29.89,WSW,238,9.0,15.0,90,0.05,,---,0.05,VWS V14.01,2013-04-01 03:14:00,
2013-03-31 23:19:00,59.3,56.7,29.89,WSW,250,10.0,15.0,91,0.05,,---,0.05,VWS V14.01,2013-04-01 03:19:00,
2013-03-31 23:24:00,59.3,56.7,29.89,West,268,9.0,15.0,91,0.05,,---,0.05,VWS V14.01,2013-04-01 03:24:00,
2013-03-31 23:29:00,59.2,56.6,29.89,WSW,254,10.0,12.0,91,0.03,,---,0.05,VWS V14.01,2013-04-01 03:29:00,
2013-03-31 23:34:00,58.9,56.3,29.88,SW,221,11.0,16.0,91,0.03,,---,0.05,VWS V14.01,2013-04-01 03:34:00,
2013-03-31 23:39:00,58.5,55.9,29.88,SW,217,16.0,16.0,91,0.03,,---,0.05,VWS V14.01,2013-04-01 03:39:00,
2013-03-31 23:44:00,58.1,55.5,29.88,SW,216,8.0,17.0,91,0.03,,---,0.05,VWS V14.01,2013-04-01 03:44:00,
2013-03-31 23:49:00,57.8,55.5,29.88,SW,230,10.0,17.0,92,0.03,,---,0.05,VWS V14.01,2013-04-01 03:49:00,
2013-03-31 23:54:00,57.7,55.4,29.88,SW,235,13.0,18.0,92,0.03,,---,0.05,VWS V14.01,2013-04-01 03:54:00,
2013-03-31 23:59:00,57.8,55.8,29.88,SW,223,11.0,15.0,93,0.00,,---,0.00,VWS V14.01,2013-04-01 03:59:00,